Location: Sternwarte_Laufen
(47.9344°N, 12.9346°E)
Time: 08:05:33
(UTC+02:00)

ISS - Pass Details

Date: 16 March 2018
Orbit: 402 x 407 km, 51.6° (Epoch: 25 June)

Event Time Altitude Azimuth Distance (km) Brightness Sun altitude
Exits shadow 03:51:17 32° 75° (ENE) 729 -2.0 -24.9°
Drops below altitude 10° 03:53:19 10° 93° (E) 1,478 -0.2 -24.6°
Enters shadow 04:50:52 -66° 296° (WNW) 12,092 3.6 -15.6°
